DW3823 Weather Reports


Display with metric or nautical units.
time (UTC)temp
F
wind
direction
speed
MPH
gust
MPH
rain 1hr
in
rain 24hr
in
rain mn
in
humidity
%
barometer
mb
20260506141023 64 161 1.0 5.0 0.08 0.44 0.42 94 1009.0
20260506140522 64 5 1.0 5.0 0.07 0.43 0.41 93 1009.0
20260506140023 64 178 1.0 5.0 0.06 0.42 0.40 93 1009.8
20260506135521 64 169 2.0 6.0 0.05 0.41 0.39 93 1010.3
20260506135024 64 165 2.0 7.0 0.03 0.39 0.37 93 1010.9
20260506134521 64 163 1.0 7.0 0.02 0.38 0.36 93 1010.8
20260506134022 64 92 1.0 5.0 0.01 0.37 0.35 93 1010.7
20260506133519 64 190 0.0 3.0 0.00 0.36 0.34 93 1010.8
20260506133020 64 186 1.0 5.0 0.00 0.36 0.34 92 1010.5
20260506132522 64 188 1.0 5.0 0.00 0.36 0.34 93 1010.3
20260506132018 64 192 1.0 4.0 0.00 0.36 0.34 93 1010.4
20260506131523 64 279 1.0 5.0 0.00 0.36 0.34 93 1010.2
20260506131017 64 169 1.0 5.0 0.00 0.36 0.34 93 1010.0
20260506130517 64 251 2.0 7.0 0.00 0.36 0.34 92 1010.0
20260506130018 64 144 3.0 7.0 0.00 0.36 0.34 92 1010.1
20260506125515 64 196 1.0 6.0 0.00 0.36 0.34 93 1010.0
20260506125014 64 184 2.0 6.0 0.00 0.36 0.34 93 1010.0
20260506124513 64 193 1.0 5.0 0.00 0.36 0.34 93 1009.8
20260506124011 64 223 2.0 7.0 0.00 0.36 0.34 93 1009.9
20260506123515 64 165 3.0 7.0 0.01 0.36 0.34 93 1009.7
20260506123014 64 223 2.0 7.0 0.05 0.36 0.34 93 1009.6
20260506122510 64 178 1.0 7.0 0.10 0.36 0.34 93 1009.6
20260506122014 64 208 2.0 7.0 0.15 0.36 0.34 93 1009.3
20260506121509 64 207 1.0 4.0 0.20 0.36 0.34 93 1009.3
20260506121009 64 184 1.0 9.0 0.23 0.36 0.34 93 1009.2
20260506120509 63 178 1.0 5.0 0.24 0.36 0.34 93 1009.1
20260506120021 63 175 2.0 7.0 0.26 0.36 0.34 93 1009.2
20260506115514 63 187 2.0 7.0 0.27 0.36 0.34 93 1009.1
20260506115008 63 158 2.0 8.0 0.27 0.36 0.34 93 1009.0
20260506114508 63 164 2.0 8.0 0.27 0.36 0.34 93 1009.1
20260506114007 63 261 4.0 11.0 0.27 0.36 0.34 93 1008.7
20260506113506 63 150 4.0 11.0 0.25 0.34 0.32 92 1008.3
20260506113005 63 137 3.0 11.0 0.21 0.30 0.28 92 1008.9
20260506112505 63 118 1.0 8.0 0.16 0.25 0.23 92 1009.1
20260506112006 63 181 2.0 9.0 0.11 0.20 0.18 92 1008.7
20260506111504 63 166 3.0 9.0 0.07 0.15 0.13 92 1008.7
20260506111003 63 188 2.0 9.0 0.07 0.13 0.11 91 1009.4
20260506110503 63 188 2.0 6.0 0.08 0.12 0.10 91 1009.2
20260506110002 63 222 0.0 6.0 0.07 0.10 0.08 91 1009.6
20260506105602 64 229 0.0 4.0 0.07 0.09 0.07 91 1009.4
20260506105103 64 259 1.0 4.0 0.07 0.09 0.07 90 1009.4
20260506104601 64 258 0.0 2.0 0.07 0.09 0.07 90 1009.2
20260506104058 64 258 0.0 5.0 0.07 0.09 0.07 90 1009.0
20260506103600 64 258 1.0 5.0 0.07 0.09 0.07 90 1009.0
20260506103057 64 161 1.0 6.0 0.07 0.09 0.07 89 1008.7
20260506102557 64 213 1.0 6.0 0.07 0.09 0.07 89 1008.8
20260506102056 64 213 1.0 4.0 0.07 0.09 0.07 88 1008.8
20260506101554 64 232 1.0 7.0 0.06 0.08 0.06 87 1008.6
20260506101056 65 177 2.0 6.0 0.04 0.06 0.04 86 1008.7
20260506100553 65 171 2.0 6.0 0.02 0.04 0.02 85 1008.8
20260506100057 66 189 2.0 7.0 0.01 0.03 0.01 83 1008.9
20260506095550 66 130 3.0 8.0 0.00 0.02 0.00 82 1008.5
20260506095051 66 188 2.0 10.0 0.00 0.02 0.00 80 1008.3
20260506094555 67 145 4.0 10.0 0.00 0.02 0.00 79 1008.1
20260506094048 67 202 3.0 14.0 0.00 0.02 0.00 77 1008.1
20260506093547 68 273 2.0 8.0 0.00 0.02 0.00 76 1008.1
20260506093045 68 276 4.0 15.0 0.00 0.02 0.00 75 1008.0
20260506092543 68 242 6.0 15.0 0.00 0.02 0.00 74 1007.8
20260506092045 69 184 5.0 12.0 0.00 0.02 0.00 73 1007.5
20260506091544 68 180 2.0 9.0 0.00 0.02 0.00 73 1007.7
20260506091043 68 175 2.0 9.0 0.00 0.02 0.00 73 1007.4
20260506090542 68 164 3.0 10.0 0.00 0.02 0.00 73 1007.4
20260506090041 68 142 2.0 10.0 0.00 0.02 0.00 73 1007.3
20260506085540 69 263 4.0 11.0 0.00 0.02 0.00 72 1007.0
20260506085043 69 170 5.0 15.0 0.00 0.02 0.00 71 1007.0
20260506084540 69 165 5.0 15.0 0.00 0.02 0.00 69 1007.1
20260506084039 69 212 5.0 15.0 0.00 0.02 0.00 69 1007.1
20260506083539 69 284 4.0 15.0 0.00 0.02 0.00 68 1006.9
20260506083041 69 175 5.0 15.0 0.00 0.02 0.00 68 1006.7
20260506082537 69 170 5.0 15.0 0.00 0.02 0.00 68 1006.6
20260506082037 69 119 6.0 16.0 0.00 0.02 0.00 67 1006.8
20260506081537 69 239 5.0 16.0 0.00 0.02 0.00 67 1006.9
20260506081038 69 198 5.0 14.0 0.00 0.02 0.00 67 1007.0
20260506080537 69 228 4.0 14.0 0.00 0.02 0.00 67 1007.1
20260506073035 69 166 3.0 10.0 0.00 0.02 0.00 65 1006.9
20260506072539 69 207 3.0 14.0 0.00 0.02 0.00 65 1006.7
20260506072035 69 270 5.0 14.0 0.00 0.02 0.00 65 1006.8
20260506071534 69 163 4.0 10.0 0.00 0.02 0.00 65 1007.0
20260506071033 69 213 1.0 9.0 0.00 0.02 0.00 65 1007.1
20260506070534 69 281 3.0 9.0 0.00 0.02 0.00 65 1007.2
20260506062029 69 205 3.0 11.0 0.00 0.02 0.00 63 1007.6
20260506061529 69 238 4.0 11.0 0.00 0.02 0.00 63 1007.7
20260506061028 69 209 4.0 12.0 0.00 0.02 0.00 63 1007.6
20260506060526 69 168 5.0 12.0 0.00 0.02 0.00 63 1007.7
20260506051017 68 280 5.0 10.0 0.00 0.02 0.00 64 1008.5
20260506050516 68 167 2.0 10.0 0.00 0.02 0.00 65 1008.8
20260506045014 68 178 3.0 11.0 0.00 0.02 0.02 66 1008.7
20260506044522 68 95 3.0 10.0 0.00 0.02 0.02 66 1008.7
20260506044013 68 113 3.0 9.0 0.00 0.02 0.02 65 1008.6
20260506043515 68 220 2.0 8.0 0.00 0.02 0.02 65 1008.7
20260506043019 68 220 4.0 8.0 0.00 0.02 0.02 64 1008.9
20260506042514 68 135 3.0 8.0 0.00 0.02 0.02 64 1008.9
20260506042013 68 180 3.0 12.0 0.00 0.02 0.02 64 1009.0
20260506041516 68 218 5.0 18.0 0.00 0.02 0.02 64 1008.9
20260506041015 68 167 5.0 18.0 0.00 0.02 0.02 64 1008.9
20260506040514 68 143 4.0 10.0 0.00 0.02 0.02 64 1008.8
20260506040013 68 232 3.0 10.0 0.00 0.02 0.02 65 1008.8
20260506035513 68 193 3.0 7.0 0.00 0.02 0.02 65 1008.9
20260506035013 68 183 2.0 6.0 0.00 0.02 0.02 64 1009.1
20260506034512 68 221 2.0 7.0 0.00 0.02 0.02 65 1009.0
20260506034011 68 144 1.0 9.0 0.00 0.02 0.02 64 1009.1
20260506033511 68 215 3.0 9.0 0.00 0.02 0.02 64 1009.1
20260506033010 68 232 2.0 7.0 0.00 0.02 0.02 63 1009.2
20260506032510 68 179 2.0 7.0 0.00 0.02 0.02 64 1009.2
20260506032011 68 167 2.0 9.0 0.00 0.02 0.02 64 1009.2
20260506031511 67 182 3.0 9.0 0.00 0.02 0.02 63 1008.9
20260506031011 67 215 4.0 9.0 0.00 0.02 0.02 63 1009.0
20260506030510 67 194 1.0 7.0 0.01 0.02 0.02 64 1009.0
20260506030010 67 155 3.0 7.0 0.01 0.02 0.02 64 1009.1
20260506025510 67 234 2.0 8.0 0.01 0.02 0.02 63 1008.9
20260506025010 67 245 4.0 8.0 0.01 0.02 0.02 63 1008.9
20260506024516 67 187 2.0 9.0 0.01 0.02 0.02 63 1009.0
20260506024011 67 154 3.0 9.0 0.01 0.02 0.02 63 1008.9
20260506023509 67 209 3.0 6.0 0.01 0.02 0.02 64 1009.2
20260506023016 67 198 2.0 11.0 0.01 0.02 0.02 64 1009.2
20260506022509 67 167 2.0 11.0 0.01 0.02 0.02 65 1009.1
20260506022008 66 172 3.0 6.0 0.02 0.02 0.02 67 1009.3
20260506021608 65 265 3.0 7.0 0.02 0.02 0.02 67 1009.2
20260506021011 65 144 2.0 8.0 0.02 0.02 0.02 69 1009.2
20260506020512 64 272 0.0 8.0 0.01 0.01 0.01 71 1009.4
20260506020008 62 294 0.0 3.0 0.01 0.01 0.01 80 1009.5
20260506015508 61 201 0.0 0.0 0.01 0.01 0.01 83 1009.4
20260506015008 61 200 0.0 1.0 0.01 0.01 0.01 84 1009.6
20260506014507 61 201 0.0 5.0 0.01 0.01 0.01 82 1009.5
20260506014005 62 200 0.0 5.0 0.01 0.01 0.01 80 1009.5
20260506013505 62 306 0.0 2.0 0.01 0.01 0.01 79 1009.4
20260506013006 64 306 0.0 4.0 0.01 0.01 0.01 73 1009.5
20260506012505 67 306 1.0 6.0 0.00 0.00 0.00 63 1009.6
20260506012011 68 206 3.0 6.0 0.00 0.00 0.00 55 1009.6
20260506011516 68 201 1.0 6.0 0.00 0.00 0.00 55 1009.2
20260506011008 69 240 2.0 8.0 0.00 0.00 0.00 52 1009.2
20260506010504 69 132 2.0 8.0 0.00 0.00 0.00 52 1009.0
20260506010004 69 130 4.0 8.0 0.00 0.00 0.00 51 1009.0
20260506005505 69 288 3.0 9.0 0.00 0.00 0.00 51 1008.8
20260506005004 69 210 3.0 9.0 0.00 0.00 0.00 51 1008.7
20260506004513 69 145 3.0 8.0 0.00 0.00 0.00 51 1008.5
20260506004003 69 172 3.0 12.0 0.00 0.00 0.00 51 1008.4
20260506003503 69 178 2.0 12.0 0.00 0.00 0.00 50 1008.5
20260506003004 69 167 2.0 11.0 0.00 0.00 0.00 50 1008.5
20260506002502 69 179 2.0 8.0 0.00 0.00 0.00 50 1008.7
20260506002002 69 270 3.0 8.0 0.00 0.00 0.00 49 1008.6
20260506001502 69 140 3.0 8.0 0.00 0.00 0.00 49 1008.5
20260506001002 69 262 3.0 12.0 0.00 0.00 0.00 49 1008.7
20260506000502 69 84 4.0 12.0 0.00 0.00 0.00 49 1008.8
20260506000001 69 257 3.0 15.0 0.00 0.00 0.00 48 1009.0
20260505235501 70 198 5.0 15.0 0.00 0.00 0.00 48 1008.9
20260505235001 69 187 3.0 10.0 0.00 0.00 0.00 49 1009.1
20260505234502 69 267 4.0 10.0 0.00 0.00 0.00 49 1008.9
20260505234103 70 154 2.0 10.0 0.00 0.00 0.00 49 1009.0
20260505233602 70 239 2.0 14.0 0.00 0.00 0.00 48 1009.1
20260505233059 70 180 5.0 12.0 0.00 0.00 0.00 48 1008.9
20260505232559 70 250 3.0 10.0 0.00 0.00 0.00 48 1008.9
20260505232101 71 130 4.0 11.0 0.00 0.00 0.00 47 1008.5
20260505231559 71 151 5.0 12.0 0.00 0.00 0.00 46 1008.5
20260505231058 71 123 3.0 10.0 0.00 0.00 0.00 46 1008.3
20260505230557 71 154 4.0 13.0 0.00 0.00 0.00 45 1008.7
20260505230101 72 223 6.0 17.0 0.00 0.00 0.00 45 1008.9
20260505225557 72 196 5.0 17.0 0.00 0.00 0.00 45 1009.3
20260505225056 73 155 4.0 14.0 0.00 0.00 0.00 44 1009.4
20260505224557 73 162 5.0 14.0 0.00 0.00 0.00 44 1009.4
20260505224057 74 250 3.0 14.0 0.00 0.00 0.00 43 1009.4
20260505223555 74 174 5.0 14.0 0.00 0.00 0.00 42 1009.4
20260505223057 74 206 3.0 9.0 0.00 0.00 0.00 43 1009.6
20260505222555 74 254 3.0 16.0 0.00 0.00 0.00 43 1009.4
20260505222058 75 161 6.0 16.0 0.00 0.00 0.00 43 1009.5
20260505221604 75 122 2.0 15.0 0.00 0.00 0.00 46 1009.2
20260505221055 76 165 5.0 11.0 0.00 0.00 0.00 44 1009.0
20260505220555 76 229 3.0 11.0 0.00 0.00 0.00 47 1008.9
20260505220106 76 175 4.0 14.0 0.00 0.00 0.00 45 1008.9
20260505215554 76 198 3.0 14.0 0.00 0.00 0.00 44 1008.8
20260505215157 76 155 4.0 16.0 0.00 0.00 0.00 46 1008.9
20260505214555 75 157 6.0 16.0 0.00 0.00 0.00 44 1008.8
20260505214053 75 208 7.0 17.0 0.00 0.00 0.00 43 1008.8
20260505213552 76 187 5.0 17.0 0.00 0.00 0.00 43 1008.7
20260505213052 76 165 4.0 10.0 0.00 0.00 0.00 45 1008.7
20260505212551 76 261 5.0 18.0 0.00 0.00 0.00 45 1009.0
20260505212051 75 244 5.0 18.0 0.00 0.00 0.00 44 1008.9
20260505211551 76 159 4.0 12.0 0.00 0.00 0.00 43 1008.9
20260505211050 76 155 4.0 12.0 0.00 0.00 0.00 44 1009.0
20260505210551 76 137 5.0 18.0 0.00 0.00 0.00 44 1008.8
20260505210053 76 200 5.0 18.0 0.00 0.00 0.00 44 1009.1
20260505205548 76 228 5.0 14.0 0.00 0.00 0.00 44 1009.2
20260505205048 76 200 5.0 11.0 0.00 0.00 0.00 44 1009.3
20260505204556 76 163 4.0 12.0 0.00 0.00 0.00 44 1009.7
20260505204048 76 123 5.0 13.0 0.00 0.00 0.00 44 1009.8
20260505203549 76 254 5.0 12.0 0.00 0.00 0.00 47 1009.8
20260505203045 76 165 6.0 10.0 0.00 0.00 0.00 45 1010.0
20260505202543 75 250 5.0 9.0 0.00 0.00 0.00 50 1009.8
20260505202043 74 173 3.0 13.0 0.00 0.00 0.00 49 1009.8
20260505201547 74 138 5.0 12.0 0.00 0.00 0.00 49 1009.8
20260505201041 74 167 5.0 12.0 0.00 0.00 0.00 50 1009.9
20260505200541 73 146 5.0 12.0 0.00 0.00 0.00 50 1010.1
20260505200039 72 191 5.0 14.0 0.00 0.00 0.00 50 1010.3
20260505195539 72 151 5.0 13.0 0.00 0.00 0.00 52 1010.4
20260505195038 72 182 3.0 11.0 0.00 0.00 0.00 54 1010.6
20260505194538 71 279 3.0 12.0 0.00 0.00 0.00 54 1010.6
20260505194040 71 244 4.0 12.0 0.00 0.00 0.00 54 1010.7
20260505193536 71 234 3.0 12.0 0.00 0.00 0.00 53 1010.7
20260505193042 71 190 3.0 10.0 0.00 0.00 0.00 53 1010.7
20260505192537 71 232 3.0 11.0 0.00 0.00 0.00 53 1010.7
20260505192036 72 163 4.0 12.0 0.00 0.00 0.00 51 1010.7
20260505191536 74 192 3.0 10.0 0.00 0.00 0.00 52 1010.7
20260505191037 73 147 3.0 10.0 0.00 0.00 0.00 51 1011.0
20260505190538 74 144 4.0 11.0 0.00 0.00 0.00 51 1011.1
20260505190034 74 233 4.0 11.0 0.00 0.00 0.00 54 1011.5
20260505185534 73 258 7.0 14.0 0.00 0.00 0.00 51 1011.7
20260505185034 73 225 5.0 14.0 0.00 0.00 0.00 52 1012.0
20260505184532 72 320 4.0 16.0 0.00 0.00 0.00 55 1012.0
20260505184029 71 236 4.0 16.0 0.00 0.00 0.00 54 1011.7
20260505183529 71 180 4.0 12.0 0.00 0.00 0.00 54 1011.7
20260505183038 71 238 4.0 11.0 0.00 0.00 0.00 54 1011.5
20260505182528 71 186 4.0 12.0 0.00 0.00 0.00 55 1011.7
20260505182028 72 169 2.0 10.0 0.00 0.00 0.00 55 1011.5
20260505181529 72 126 3.0 13.0 0.00 0.00 0.00 55 1011.9
20260505181027 71 150 3.0 14.0 0.00 0.00 0.00 55 1011.9
20260505180527 71 171 4.0 14.0 0.00 0.00 0.00 56 1011.8
20260505180027 70 189 2.0 14.0 0.00 0.00 0.00 56 1011.8
20260505175527 70 186 5.0 14.0 0.00 0.00 0.00 56 1011.8
20260505175027 70 140 4.0 14.0 0.00 0.00 0.00 55 1012.3
20260505174526 71 260 3.0 12.0 0.00 0.00 0.00 53 1012.4
20260505174026 71 323 2.0 14.0 0.00 0.00 0.00 56 1012.5
20260505173526 72 98 4.0 16.0 0.00 0.00 0.00 55 1012.4
20260505173025 72 236 4.0 9.0 0.00 0.00 0.00 54 1012.4
20260505172524 72 252 3.0 11.0 0.00 0.00 0.00 55 1012.4
20260505172024 72 282 4.0 11.0 0.00 0.00 0.00 56 1012.6
20260505171523 72 330 5.0 11.0 0.00 0.00 0.00 54 1012.6
20260505171022 72 212 3.0 11.0 0.00 0.00 0.00 57 1012.6
20260505170521 71 256 3.0 11.0 0.00 0.00 0.00 57 1012.7
20260505170021 71 265 5.0 11.0 0.00 0.00 0.00 56 1012.7
20260505165520 71 213 6.0 13.0 0.00 0.00 0.00 56 1012.8
20260505165020 72 147 5.0 11.0 0.00 0.00 0.00 57 1012.8
20260505164519 71 194 3.0 11.0 0.00 0.00 0.00 57 1013.0
20260505164018 71 159 3.0 10.0 0.00 0.00 0.00 60 1013.1
20260505163519 70 108 4.0 11.0 0.00 0.00 0.00 59 1013.2
20260505163017 71 177 4.0 14.0 0.00 0.00 0.00 58 1013.5
20260505162516 71 222 1.0 11.0 0.00 0.00 0.00 60 1013.5
20260505162016 70 269 3.0 11.0 0.00 0.00 0.00 59 1013.5
20260505161516 71 151 4.0 14.0 0.00 0.00 0.00 59 1013.6
20260505161015 71 144 4.0 14.0 0.00 0.00 0.00 60 1013.5
20260505160514 71 165 5.0 13.0 0.00 0.00 0.00 59 1013.4
20260505153006 68 148 2.0 9.0 0.00 0.00 0.00 62 1013.2
20260505152504 67 205 3.0 9.0 0.00 0.00 0.00 64 1013.1
20260505152003 67 232 2.0 12.0 0.00 0.00 0.00 63 1013.1
20260505151503 67 271 4.0 12.0 0.00 0.00 0.00 63 1013.2
20260505151003 67 170 2.0 9.0 0.00 0.00 0.00 64 1013.2
20260505150503 67 248 1.0 9.0 0.00 0.00 0.00 65 1013.2